Regional Weather Roundup
Issued by NWS

Home | Current Version | Previous Version | Text Only | Print | Product List | Glossary On
Versions: 1 2 3 4 5 6 7 8 9 10 11 12 13 14 15 16 17 18 19 20 21 22 23 24 25 26 27 28 29 30 31 32 33 34 35 36 37 38 39 40 41 42 43 44 45 46 47 48 49 50
000
ASUS43 KMPX 151201
RWRMN
WEATHER ROUNDUP FOR MINNESOTA
NATIONAL WEATHER SERVICE TWIN CITIES/CHANHASSEN MN
600 AM CST MON JAN 15 2018


NOTE: "FAIR" INDICATES FEW OR NO CLOUDS BELOW 12,000 FEET WITH NO
SIGNIFICANT WEATHER AND/OR OBSTRUCTIONS TO VISIBILITY. N/A MEANS
CURRENT SKY AND/OR WEATHER CONDITIONS ARE NOT AVAILABLE.

MNZ060>063-068>070-151300-
   Twin Cities Metro

CITY           SKY/WX    TMP DP  RH WIND       PRES   REMARKS
TWIN CITIES    LGT SNOW   6   2  83 NW14G25   30.26R FOG     WCI -11
6HR MIN TEMP:   6; 6HR MAX TEMP:  14; 6HR PCP: TRACE;

ST PAUL        LGT SNOW   7   1  76 NW18      30.27R WCI -12
CRYSTAL        CLOUDY     5  -3  69 NW13      30.27R WCI -12
BLAINE         CLOUDY     7   1  78 NW15G22   30.25R WCI -11
LAKEVILLE      CLOUDY     3   0  85 NW17G23   30.24R FOG     WCI -17
EDEN PRAIRIE   CLOUDY     5  -2  72 NW16G25   30.25R HAZE    WCI -14
6HR MIN TEMP:   5; 6HR MAX TEMP:  12; 6HR PCP: TRACE;

SOUTH ST PAUL  CLOUDY     8   1  75 N14G21    30.26R WCI  -9
LAKE ELMO      CLOUDY     9   3  78 N14G23    30.24R WCI  -8
$$
MNZ001>005-007-008-013>017-022>024-027-028-151300-
   Northwest Minnesota

CITY           SKY/WX    TMP DP  RH WIND       PRES   REMARKS
BEMIDJI        CLOUDY    -6 -11  78 NW15      30.38R WCI -27
HALLOCK        CLOUDY   -11 -17  77 N25G32    30.61R WCI -39
ROSEAU         CLOUDY    -8 -13  77 N18       30.51R HAZE    WCI -31
WARROAD        LGT SNOW  -8 -13  77 N17       30.50R WCI -31
CROOKSTON      SNOW      -9 -15  77 N28       30.56R VSB 1/2 WCI -38
FOSSTON        CLOUDY    -9 -15  77 NW18      30.45R HAZE    WCI -33
DETROIT LAKES  CLOUDY    -8 -13  77 N17G24    30.44R HAZE    WCI -31
MOORHEAD       CLOUDY    -9 -15  77 N25       30.54R WCI -37
PARK RAPIDS    MIX PCPN  -6 -13  71 N15       30.35R WCI -27
MAHNOMEN       CLOUDY    -9 -14  77 N17       30.45R HAZE    WCI -32
$$
MNZ006-009>011-018-025>026-151300-
   North Central Minnesota

CITY           SKY/WX    TMP DP  RH WIND       PRES   REMARKS
BAUDETTE       FAIR      -5 -11  75 N15       30.42R WCI -26
FLAG ISLAND    MOCLDY    -8 -13  77 N20       30.50R WCI -32
INTL FALLS     FAIR      -2  -9  72 N14       30.36R WCI -21
6HR MIN TEMP:  -2; 6HR MAX TEMP:   3; 6HR PCP: TRACE;

WASKISH        LGT RAIN  -2  -8  78 N10G18    30.39R WCI -19
BIG FORK       FLURRIES   0  -6  78 N7        30.32R WCI -13
LONGVILLE      CLOUDY    -2  -9  71 NW5       30.33R WCI -12
GRAND RAPIDS   FLURRIES  -1  -6  79 NW13      30.31R WCI -19
CRANE LAKE     LGT SNOW  -2  -6  84 NW6       30.34R WCI -14
ORR            MIX PCPN  -2  -8  78 NW6       30.27R WCI -14
COOK           LGT SNOW  -2  -6  84 N6        30.29R WCI -14
WALKER         CLOUDY    -5 -11  75 NW13      30.35R WCI -25
$$
MNZ012-019>021-037-151300-
   Northeast Minnesota

CITY           SKY/WX    TMP DP  RH WIND       PRES   REMARKS
DULUTH         FLURRIES   1  -3  83 N15G23    30.20R WCI -18
6HR MIN TEMP:   1; 6HR MAX TEMP:   3; 6HR PCP: TRACE;

ELY            FLURRIES  -2  -6  84 MISG      30.24R
HIBBING        CLOUDY    -2  -7  79 N15       30.26R WCI -22
EVELETH        FAIR      -2  -8  74 N9        30.26R WCI -17
DULUTH HARBOR  LGT SNOW   9   1  72 N14G24    30.27R WCI  -8
TWO HARBORS    MOCLDY     7   0  72 NW7       30.19R WCI  -5
SILVER BAY     CLOUDY     5   0  78 N7        30.19R HAZE    WCI  -7
GRAND MARAIS     N/A     14   7  73 N10G20    30.25R WCI   1
G MARAIS ARPRT LGT SNOW   3   0  85 N9        30.16R WCI -11
$$
MNZ029>031-032-039>041-046>048-054>057-064-151300-
   West Central Minnesota

CITY           SKY/WX    TMP DP  RH WIND       PRES   REMARKS
FERGUS FALLS   LGT SNOW  -9 -15  77 N17G33    30.52R WCI -33
WHEATON        CLOUDY    -8 -15  71 NW21G28   30.51R WCI -32
MORRIS         CLOUDY    -6 -13  71 NW25G35   30.43R HAZE    WCI -32
ALEXANDRIA     CLOUDY    -7 -14  71 N20       30.37R WCI -31
ELBOW LAKE     CLOUDY    -8 -13  77 NW20G26   30.45R HAZE    WCI -32
WADENA         CLOUDY    -8 -15  71 NW10      30.37R WCI -26
GLENWOOD       MOCLDY    -6 -11  77 NW14G23   30.37R WCI -26
APPLETON       CLOUDY    -6 -11  77 NW20G25   30.47R WCI -29
BENSON           N/A     -6 -13  71 N23G29    30.42R WCI -31
ORTONVILLE     CLOUDY    -8 -13  77 N18       30.48R HAZE    WCI -31
MADISON        MOCLDY    -4  -9  77 NW22      30.47R HAZE    WCI -28
WILLMAR        CLOUDY    -2  -8  78 NW20G25   30.39R WCI -25
$$
MNZ033>034-036-042>043-049>051-058-059-151300-
   Central Minnesota

CITY           SKY/WX    TMP DP  RH WIND       PRES   REMARKS
ST CLOUD       CLOUDY    -1  -6  79 NW15      30.32R WCI -21
6HR MIN TEMP:  -1; 6HR MAX TEMP:   7;

SAUK CENTRE      N/A     -5 -11  75 NW18G25   30.35R WCI -27
PAYNESVILLE    CLOUDY    -3  -8  79 NW20      30.35R WCI -25
AITKIN         CLOUDY     0  -8  71 NW12      30.29R WCI -18
PINE RIVER     CLOUDY    -4  -9  77 NW10      30.36R WCI -21
BRAINERD       CLOUDY    -1  -8  72 N18       30.32R HAZE    WCI -22
STAPLES        CLOUDY    -6 -13  71 NW13G20   30.36R WCI -25
LONG PRAIRIE   CLOUDY    -4  -9  77 W14G21    30.34R WCI -24
LITTLE FALLS   CLOUDY     0 -13  55 NW8G17    30.35R WCI -15
LITCHFIELD     CLOUDY     0  -8  71 NW15      30.34R WCI -20
BUFFALO        CLOUDY     2  -4  74 NW16G22   30.32R HAZE    WCI -18
MAPLE LAKE     CLOUDY     2  -4  76 MISG      30.32R
HUTCHINSON     CLOUDY     0  -6  76 NW20G26   30.33R HAZE    WCI -22
$$
MNZ037-044-045-052-053-151300-
   East Central Minnesota

CITY           SKY/WX    TMP DP  RH WIND       PRES   REMARKS
PRINCETON      CLOUDY     3  -2  78 NW13      30.29R WCI -14
MORA           CLOUDY     5  -2  72 NW16      30.29R WCI -14
CAMBRIDGE      FLURRIES   7  -4  61 NW10G17   30.28R WCI  -8
RUSH CITY      CLOUDY     6   0  75 NW8       30.26R WCI  -7
MOOSE LAKE     LGT SNOW   5   0  78 N10       30.24R WCI -10
HINCKLEY       CLOUDY     7   0  72 N10G20    30.26R WCI  -8
CLOQUET        FLURRIES   1  -4  78 NW14G21   30.23R WCI -17
MCGREGOR       CLOUDY     3  -4  72 NW12      30.28R WCI -13
$$
MNZ071>073-080-081-089-090-097-098-151300-
   Southwest Minnesota

CITY           SKY/WX    TMP DP  RH WIND       PRES   REMARKS
MONTEVIDEO     CLOUDY    -6  -9  84 N26G36    30.43R WCI -32
GRANITE FALLS  CLOUDY    -2  -8  74 NW21G32   30.43R HAZE    WCI -25
CANBY          PTCLDY    -5 -12  73 W15G22    30.47R WCI -26
MARSHALL       LGT SNOW  -6 -12  75 NW26      30.40S WCI -33
REDWOOD FALLS  CLOUDY    -3  -7  82 NW16G29   30.38R FOG     WCI -24
OLIVIA         CLOUDY     0  -6  78 NW21      30.37R WCI -23
PIPESTONE      PTCLDY    -8 -15  71 N18G24    30.38R WCI -31
WINDOM         LGT SNOW  -6 -18  54 NW23      30.33R VSB 1   WCI -31
WORTHINGTON    FLURRIES  -7 -12  79 NW25      30.35R WCI -34
JACKSON        LGT SNOW  -6  -9  84 NW28G38   30.32R WCI -33
SLAYTON        CLOUDY    -7 -12  78 NW24      30.35R HAZE    WCI -33
$$
MNZ065>067-074>077-082>085-091>093-151300-
   South Central Minnesota

CITY           SKY/WX    TMP DP  RH WIND       PRES   REMARKS
MANKATO        LGT SNOW   0  -5  79 NW22      30.29R WCI -23
NEW ULM        CLOUDY    -2  -8  78 NW22G30   30.34R HAZE    WCI -26
ST JAMES       CLOUDY    -2  -8  78 NW21G30   30.34R FOG     WCI -25
FAIRMONT       LGT SNOW  -4  -9  79 NW29G36   30.31R WCI -31
FARIBAULT      LGT SNOW   3   0  85 NW13G18   30.24R WCI -14
OWATONNA       LGT SNOW   1  -2  85 NW18      30.23R WCI -19
WASECA         CLOUDY     3  -4  72 NW21G29   30.27R HAZE    WCI -18
ALBERT LEA     LGT SNOW   0  -6  78 NW15G25   30.22R WCI -20
$$
MNZ078>079-086>088-094>096-151300-
   Southeast Minnesota

CITY           SKY/WX    TMP DP  RH WIND       PRES   REMARKS
ROCHESTER      LGT SNOW   6   3  87 NW25      30.14R FOG     WCI -16
6HR MIN TEMP:   6; 6HR MAX TEMP:  11; 6HR PCP: TRACE;

RED WING       LGT SNOW   9   1  72 NW9       30.22R WCI  -5
STANTON        LGT SNOW   8   3  80 NW16      30.23R WCI -10
DODGE CENTER   LGT SNOW   3   0  85 NW17G26   30.17R WCI -17
WINONA         LGT SNOW  14  10  85 NW15G22     N/A  WCI  -1
PRESTON        CLOUDY     7   3  82 NW16G24   30.13R HAZE    WCI -11
$$
ABBREVIATIONS USED IN REMARKS
   TC - TEMPERATURES IN CELSIUS
  WCI - WIND CHILL INDEX
   HX - HEAT INDEX
  VSB - VISIBILITY
$$




USA.gov is the U.S. government's official web portal to all federal, state and local government web resources and services.